Volver al catálogo

STARLINK-34026

ActivoComunicacionesVLEO
NORAD 63842·PAYLOAD·🇺🇸 United States

Lanzado May 7, 2025 desde Cape Canaveral Space Force Station

Loading…

Próximos Pases (próximas 24 horas)

TLE

ActualizadoSource: CelesTrak SupGP

Época: Sep 14, 2026, 14:43 UTC

1 63842C 25093G   26257.61368056 -.00006951  00000+0 -25171-3 0  2577
2 63842  43.0004  91.1881 0001431 262.4249  73.8843 15.27590035    13

Sigue STARLINK-34026 en tiempo real con AllMySat

Download on the App Store